Location: Lawrence Hall of Science
(37.8785°N, 122.2415°W)
Time: 09:25:20
(UTC-08:00)

ARGOS - Visible Passes

Search period start: 28 February 2015 00:00
Search period end: 10 March 2015 01:00
Orbit: 820 x 836 km, 98.7° (Epoch: 26 February)

Date Brightness Start Highest point End Pass type
(mag) Time Alt. Az. Time Alt. Az. Time Alt. Az.
05 Mar 5.8 21:11:20 10° N 21:11:20 10° N 21:11:22 10° N visible
06 Mar 5.7 20:52:31 10° N 20:52:31 10° N 20:52:33 10° N visible
08 Mar 6.0 22:56:24 10° NNW 22:56:24 10° NNW 22:56:29 10° NNW visible
09 Mar 5.8 22:37:35 12° N 22:37:35 12° N 22:38:00 10° N visible
